Weather History for Fort Polk, LA

Change the Weather History Date:

Monday, July 1, 2013

  Actual Average Record
Temperature  
Mean Temperature 76 °F -  
Max Temperature 89 °F 88 °F 98 °F (1998)
Min Temperature 64 °F 71 °F 64 °F (2008)
Cooling Degree Days 12    
Growing Degree Days 26 (Base 50)    
Moisture  
Dew Point 60 °F    
Average Humidity 58    
Maximum Humidity 90    
Minimum Humidity 34    
Precipitation  
Precipitation 0.00 in - - ()
Sea Level Pressure  
Sea Level Pressure 29.91 in    
Wind  
Wind Speed 4 mph (North)    
Max Wind Speed 14 mph    
Max Gust Speed 21 mph    
Visibility 10 miles    
Events      
Averages and records for this station are not official NWS values.
T = Trace of Precipitation, MM = Missing Value Source: NWS Daily Summary

Daily Weather History Graph

Daily Weather History Graph

Search for Another Location

Airport:

Trip Planner

Search our weather history database for the weather conditions in past years. The results will help you decide how hot, cold, wet, or windy it might be!

Date:

Astronomy

Jul. 01, 2013 Rise Set
Actual Time 6:12 AM CDT 8:20 PM CDT
Civil Twilight 5:45 AM CDT 8:48 PM CDT
Nautical Twilight 5:11 AM CDT 9:21 PM CDT
Astronomical Twilight 4:34 AM CDT 9:58 PM CDT
Moon 1:28 AM CDT (7/1) 2:48 PM CDT (7/1)
Length of Visible Light 15h 03m
Length of Day
14h 07m
Waning Crescent, 35% of the Moon is Illuminated
Jul 1
Waning Crescent
Jul 8
New
Jul 15
First Quarter
Jul 22
Full
Jul 29
Last Quarter

Hourly Weather History & Observations

Time (CDT) Temp. Heat Index Dew Point Humidity Pressure Visibility Wind Dir Wind Speed Gust Speed Precip Events Conditions
12:55 AM 72.0 °F - 60.1 °F 66% 29.86 in 10.0 mi Calm Calm - N/A   Clear
1:55 AM 72.0 °F - 61.0 °F 68% 29.86 in 10.0 mi North 3.5 mph - N/A   Clear
2:55 AM 69.1 °F - 62.1 °F 78% 29.87 in 10.0 mi Calm Calm - N/A   Clear
3:55 AM 66.9 °F - 61.0 °F 81% 29.88 in 10.0 mi Calm Calm - N/A   Clear
4:55 AM 64.9 °F - 62.1 °F 90% 29.88 in 10.0 mi North 3.5 mph - N/A   Clear
5:55 AM 66.0 °F - 62.1 °F 87% 29.90 in 10.0 mi NNW 3.5 mph - N/A   Clear
6:55 AM 68.0 °F - 62.1 °F 81% 29.91 in 10.0 mi North 4.6 mph - N/A   Clear
7:55 AM 72.0 °F - 63.0 °F 73% 29.92 in 10.0 mi North 5.8 mph - N/A   Clear
8:55 AM 75.9 °F - 62.1 °F 62% 29.93 in 10.0 mi NNE 8.1 mph - N/A   Clear
9:55 AM 80.1 °F 81.2 °F 62.1 °F 54% 29.94 in 10.0 mi NNE 9.2 mph - N/A   Clear
10:55 AM 81.0 °F 81.6 °F 60.1 °F 49% 29.94 in 10.0 mi NNW 4.6 mph - N/A   Clear
11:55 AM 82.0 °F 82.7 °F 61.0 °F 49% 29.94 in 10.0 mi WNW 6.9 mph - N/A   Scattered Clouds
12:55 PM 86.0 °F 85.0 °F 57.9 °F 38% 29.93 in 10.0 mi NNE 9.2 mph 16.1 mph N/A   Clear
1:55 PM 86.0 °F 85.4 °F 59.0 °F 40% 29.91 in 10.0 mi North 11.5 mph - N/A   Scattered Clouds
2:55 PM 89.1 °F 87.7 °F 57.0 °F 34% 29.90 in 10.0 mi North 10.4 mph 20.7 mph N/A   Partly Cloudy
3:55 PM 89.1 °F 87.7 °F 57.0 °F 34% 29.89 in 10.0 mi North 13.8 mph 19.6 mph N/A   Scattered Clouds
4:55 PM 88.0 °F 86.5 °F 55.9 °F 34% 29.89 in 10.0 mi NW 12.7 mph - N/A   Clear
5:55 PM 87.1 °F 85.9 °F 57.0 °F 36% 29.89 in 10.0 mi North 10.4 mph - N/A   Clear
6:55 PM 84.9 °F 83.9 °F 57.0 °F 38% 29.90 in 10.0 mi NNW 9.2 mph - N/A   Clear
7:55 PM 82.9 °F 82.8 °F 59.0 °F 44% 29.91 in 10.0 mi North 3.5 mph - N/A   Clear
8:55 PM 79.0 °F - 61.0 °F 54% 29.93 in 10.0 mi North 3.5 mph - N/A   Clear
9:55 PM 75.9 °F - 62.1 °F 62% 29.94 in 10.0 mi Calm Calm - N/A   Clear
10:55 PM 72.0 °F - 63.0 °F 73% 29.95 in 10.0 mi Calm Calm - N/A   Clear
11:55 PM 73.0 °F - 62.1 °F 68% 29.96 in 10.0 mi NNE 4.6 mph - N/A   Clear